Wind_Speed
41 41 42 42 43 43 44 44 44 44 45 45 44 44 43 44 44 44 45 45 45 46 46 46 45 45 46 45 44 44 44 44 45 45 46 46 45 44
39 40 40 41 41 42 43 44 44 44 43 43 43 44 43 43 43 43 43 43 44 45 45 45 45 44 44 44 43 43 43 43 44 44 44 44 44 43
40 39 39 40 40 41 42 42 43 43 42 42 42 42 42 42 42 41 41 41 42 43 43 43 43 43 43 42 42 42 43 43 43 43 43 43 43 42
39 39 39 39 39 40 40 41 41 41 41 41 41 41 41 41 42 41 41 41 41 41 41 41 42 42 42 41 41 40 41 42 42 43 42 42 42 41
39 39 40 40 39 40 40 40 40 40 40 40 40 40 40 40 40 40 40 40 40 40 40 40 40 40 40 40 39 39 40 41 41 41 40 40 40 40
39 40 40 41 41 41 41 40 40 40 40 40 40 40 40 39 39 39 39 39 39 39 38 38 39 38 38 38 38 38 38 39 39 40 39 39 39 39
40 40 41 41 41 40 40 39 39 40 40 40 39 39 38 38 38 37 37 37 38 38 37 38 38 37 37 37 37 37 37 38 38 37 37 37 37 37
40 40 40 40 39 39 39 39 39 39 39 39 38 38 37 37 37 37 37 37 36 36 36 36 36 35 35 35 36 37 36 36 36 36 36 35 35 35
38 38 38 38 37 37 37 37 37 37 36 37 37 37 37 37 37 36 36 36 36 36 35 34 35 35 35 34 34 35 35 35 35 35 34 34 33 33
36 36 36 36 36 35 35 35 35 35 35 35 36 36 36 36 36 35 35 35 35 35 35 33 33 34 34 34 34 34 34 34 33 33 33 32 32 32
34 34 34 34 34 33 33 33 33 34 34 35 36 35 34 34 34 34 33 33 33 34 35 34 33 32 33 33 33 33 33 32 32 31 32 31 31 31
33 33 33 32 32 32 32 32 33 34 34 35 35 34 33 33 33 32 32 32 32 32 32 32 32 31 31 31 32 32 32 31 30 30 30 31 31 31
33 32 32 31 31 32 32 31 32 32 33 33 33 33 32 32 31 31 31 31 31 30 30 31 31 31 31 29 30 30 30 30 30 29 29 30 30 31
31 31 31 30 30 31 30 30 30 31 31 32 32 32 32 31 31 31 30 30 29 29 29 30 30 30 29 29 28 28 29 29 29 28 28 28 28 29
30 30 30 30 30 30 30 30 30 30 30 31 30 30 30 30 30 30 29 28 28 28 28 28 27 27 27 27 26 26 25 26 26 26 26 26 26 26
29 29 30 30 29 29 29 29 29 29 29 29 29 28 28 28 28 28 27 26 26 26 26 25 24 24 24 25 25 25 25 24 24 25 26 25 24 24
30 30 30 29 29 28 28 28 28 28 28 27 27 27 26 26 26 26 26 25 25 24 24 23 22 22 23 24 24 24 24 24 24 24 24 23 23 23
29 29 28 28 27 27 27 27 27 26 26 26 25 25 25 25 25 25 25 25 24 23 22 21 21 21 21 23 23 23 22 23 23 24 22 22 21 21
27 27 27 27 27 27 26 26 26 25 24 25 24 24 24 23 23 23 23 22 22 22 21 21 20 20 20 21 21 21 21 22 22 22 22 21 20 20
27 27 26 26 26 26 26 25 25 24 24 23 23 23 23 22 22 21 21 21 20 20 20 20 20 20 20 19 19 20 21 20 21 21 22 21 19 19
26 25 25 25 25 25 25 24 24 23 23 22 22 22 22 21 20 20 20 20 20 20 20 20 20 19 19 18 18 18 19 20 20 20 19 18 17 17
24 23 23 23 23 23 23 22 21 21 21 21 21 20 20 20 19 19 19 19 20 20 20 20 20 20 19 18 18 18 18 18 19 18 17 16 16 16
22 22 21 21 21 21 21 20 19 19 20 19 19 18 18 18 18 18 18 18 18 18 19 19 19 18 18 17 17 17 17 17 17 16 16 14 14 14
Wind_Direction
275 275 276 276 276 276 275 274 275 275 275 275 275 275 276 276 274 272 272 271 271 270 271 271 272 272 272 273 270 267 266 267 267 267 267 268 268 268
277 277 277 278 278 275 275 276 276 276 275 275 274 275 276 276 275 273 271 271 272 271 271 272 272 273 273 272 270 267 267 267 268 267 267 267 268 268
276 277 278 279 279 277 276 276 276 276 276 276 275 275 276 276 275 273 272 272 273 274 274 274 273 273 272 271 270 268 267 268 268 267 266 267 268 268
277 277 279 281 280 278 277 276 276 276 276 275 275 276 276 276 276 274 273 273 274 275 275 275 275 274 273 273 272 270 269 269 268 267 267 267 267 267
277 278 279 281 280 279 278 277 276 276 276 275 274 275 277 277 277 276 275 274 275 275 275 275 274 274 274 273 272 271 271 269 268 267 267 266 265 266
276 278 279 280 280 279 278 277 275 275 275 275 274 275 276 278 278 276 276 276 276 276 275 274 274 275 273 273 273 272 271 270 269 268 268 266 265 265
277 278 279 280 280 278 277 277 276 276 275 275 275 276 276 276 276 276 276 276 276 274 273 273 274 274 272 271 272 273 272 270 270 269 268 267 266 264
277 278 279 280 280 278 277 276 276 276 276 275 275 275 276 277 276 275 274 274 274 273 274 274 273 273 273 272 273 272 272 272 271 270 269 267 265 264
277 278 279 280 279 278 276 276 276 275 275 276 275 275 276 275 276 275 275 275 275 273 273 274 274 273 273 273 274 273 273 273 271 270 269 266 265 263
277 278 280 280 280 278 276 275 274 274 275 275 276 277 276 275 274 274 273 274 274 273 272 273 273 272 272 272 272 273 273 273 271 267 266 264 263 263
278 279 280 280 279 277 276 274 273 274 275 275 277 277 276 274 274 273 272 273 273 272 271 272 271 270 271 271 271 271 273 273 271 268 266 264 263 263
279 280 279 279 278 277 276 275 274 275 275 275 274 275 275 274 273 273 274 274 274 274 272 272 271 269 268 269 269 271 272 272 271 268 266 264 263 264
280 280 279 279 278 277 277 277 277 276 275 274 274 274 274 273 272 273 275 276 276 275 274 272 271 269 267 267 268 269 271 271 269 267 266 266 265 265
279 279 279 278 278 278 278 279 280 278 277 275 274 274 273 272 271 273 275 276 276 276 275 273 271 269 267 267 267 268 270 270 269 267 267 268 268 266
279 278 278 279 279 278 278 280 281 281 278 276 275 273 272 271 271 272 274 276 276 277 276 274 273 270 267 267 266 267 268 268 268 268 269 269 269 268
279 279 279 279 279 279 279 280 281 282 280 277 274 273 273 271 270 270 271 273 274 275 276 274 271 269 269 269 268 267 268 268 270 271 270 270 270 269
277 278 278 278 279 279 280 281 282 282 280 277 275 273 272 271 270 270 270 271 272 273 272 270 271 272 271 269 268 268 268 268 270 272 271 270 270 268
275 276 277 276 276 278 280 281 282 280 279 276 273 272 272 271 270 270 270 270 270 270 268 266 268 272 274 274 272 270 268 269 269 271 271 270 268 265
275 277 277 276 276 277 278 279 278 277 276 275 272 272 273 272 271 271 269 268 268 267 265 264 268 273 275 274 273 272 271 270 268 272 272 270 266 263
276 277 277 276 277 277 276 276 275 274 274 273 273 272 272 272 272 270 268 267 267 266 264 265 269 275 278 276 273 273 274 274 273 272 271 269 263 260
277 278 277 277 277 277 274 273 273 273 272 273 272 272 270 271 271 269 267 266 266 266 266 268 272 276 279 278 275 273 273 274 274 273 271 266 260 257
278 278 277 277 278 276 273 272 272 272 273 273 272 270 267 269 270 268 267 267 267 266 267 269 271 274 277 277 276 274 275 275 274 272 268 263 259 257
279 278 277 277 277 274 272 269 270 271 272 272 271 268 268 269 268 267 267 267 266 267 269 271 271 270 272 273 273 273 273 273 273 270 267 264 259 256
Height
5649 5647 5646 5645 5643 5642 5641 5640 5640 5639 5639 5637 5635 5633 5631 5631 5630 5629 5629 5628 5627 5627 5626 5626 5626 5625 5624 5623 5623 5622 5623 5623 5623 5624 5624 5624 5625 5624
5638 5637 5635 5634 5632 5630 5629 5628 5627 5626 5626 5625 5623 5621 5620 5619 5618 5617 5617 5616 5616 5615 5615 5614 5613 5612 5611 5610 5610 5610 5610 5611 5611 5611 5611 5612 5612 5612
5627 5626 5624 5623 5621 5619 5617 5616 5615 5614 5613 5613 5611 5610 5608 5607 5606 5606 5605 5604 5604 5603 5603 5602 5601 5600 5599 5598 5598 5598 5598 5598 5598 5598 5598 5599 5599 5599
5617 5615 5614 5612 5610 5608 5606 5605 5603 5602 5602 5602 5600 5598 5597 5596 5595 5595 5594 5593 5592 5592 5591 5590 5589 5588 5588 5587 5586 5586 5586 5586 5586 5586 5586 5587 5587 5586
5606 5604 5603 5601 5599 5597 5595 5594 5592 5591 5590 5590 5589 5588 5586 5585 5584 5583 5583 5582 5581 5580 5579 5579 5578 5577 5576 5576 5575 5575 5575 5575 5575 5574 5574 5574 5574 5574
5595 5593 5592 5590 5588 5586 5584 5583 5581 5580 5579 5578 5578 5577 5576 5574 5573 5573 5572 5571 5570 5570 5569 5568 5567 5566 5566 5565 5565 5564 5564 5563 5563 5562 5562 5562 5562 5563
5583 5582 5580 5578 5576 5574 5573 5571 5570 5569 5568 5567 5567 5566 5565 5564 5563 5562 5562 5561 5560 5559 5558 5558 5557 5556 5555 5555 5554 5553 5553 5552 5552 5551 5551 5551 5551 5551
5572 5570 5569 5566 5564 5563 5562 5561 5559 5558 5557 5556 5556 5555 5555 5554 5553 5552 5551 5551 5551 5550 5548 5547 5546 5546 5545 5545 5544 5543 5542 5542 5541 5541 5540 5540 5540 5541
5561 5559 5557 5555 5553 5552 5551 5549 5548 5547 5547 5546 5545 5545 5544 5544 5543 5542 5541 5540 5540 5539 5538 5537 5536 5536 5535 5534 5533 5533 5532 5531 5531 5530 5530 5530 5531 5531
5550 5548 5547 5545 5543 5541 5540 5539 5538 5537 5536 5535 5535 5535 5533 5532 5532 5531 5530 5530 5529 5529 5528 5527 5526 5525 5524 5524 5523 5523 5522 5521 5521 5520 5520 5521 5521 5522
5539 5538 5536 5534 5533 5531 5530 5529 5528 5527 5525 5524 5524 5523 5522 5521 5521 5520 5520 5519 5519 5519 5517 5517 5516 5515 5515 5514 5513 5512 5512 5511 5511 5511 5511 5511 5512 5512
5529 5528 5526 5524 5522 5520 5519 5518 5518 5517 5515 5514 5513 5512 5512 5511 5510 5510 5510 5509 5509 5509 5508 5507 5506 5505 5506 5505 5504 5503 5502 5502 5502 5502 5502 5502 5503 5503
5519 5518 5516 5514 5512 5511 5509 5508 5507 5506 5505 5503 5503 5502 5501 5501 5501 5500 5500 5500 5499 5499 5498 5497 5497 5496 5495 5496 5495 5494 5493 5493 5493 5493 5493 5493 5494 5494
5510 5508 5507 5505 5503 5502 5500 5499 5497 5496 5494 5493 5493 5492 5492 5492 5492 5492 5491 5490 5490 5490 5489 5487 5487 5486 5486 5486 5487 5486 5485 5485 5485 5485 5485 5484 5484 5485
5500 5499 5497 5496 5494 5493 5491 5489 5488 5486 5485 5484 5483 5483 5483 5483 5483 5483 5483 5482 5481 5480 5480 5479 5478 5477 5477 5478 5478 5478 5478 5477 5477 5477 5477 5476 5476 5476
5491 5489 5488 5486 5485 5484 5482 5481 5479 5477 5476 5475 5475 5475 5474 5474 5474 5474 5474 5474 5474 5473 5472 5471 5470 5470 5470 5470 5470 5470 5470 5470 5470 5469 5469 5469 5469 5468
5481 5480 5479 5478 5477 5475 5474 5472 5471 5469 5468 5468 5467 5467 5466 5466 5466 5466 5466 5466 5466 5466 5465 5464 5463 5463 5462 5463 5463 5463 5463 5463 5463 5462 5462 5462 5462 5461
5472 5471 5470 5469 5468 5467 5466 5465 5463 5462 5461 5460 5460 5460 5459 5459 5459 5459 5458 5459 5459 5459 5459 5458 5457 5457 5456 5456 5456 5456 5455 5455 5455 5455 5454 5455 5455 5455
5463 5462 5461 5460 5459 5458 5457 5457 5456 5455 5454 5453 5453 5452 5452 5452 5452 5451 5451 5452 5452 5452 5452 5452 5451 5451 5451 5451 5450 5448 5448 5448 5448 5448 5447 5447 5448 5448
5454 5453 5453 5452 5451 5450 5449 5449 5448 5447 5447 5446 5446 5445 5445 5445 5445 5445 5445 5445 5445 5446 5446 5446 5446 5445 5445 5445 5444 5443 5442 5442 5442 5441 5441 5440 5441 5441
5446 5445 5444 5443 5442 5442 5441 5440 5440 5440 5440 5439 5439 5439 5438 5438 5438 5439 5439 5439 5440 5440 5440 5440 5440 5440 5439 5438 5438 5437 5436 5436 5435 5435 5434 5434 5435 5435
5438 5437 5436 5435 5435 5434 5433 5433 5433 5433 5433 5432 5432 5432 5432 5432 5432 5433 5433 5434 5434 5434 5434 5434 5434 5434 5433 5433 5432 5432 5431 5430 5429 5428 5428 5428 5428 5430
5431 5430 5429 5428 5428 5427 5426 5426 5426 5426 5426 5426 5426 5426 5426 5427 5427 5427 5427 5427 5428 5428 5428 5428 5428 5428 5427 5427 5427 5426 5426 5425 5424 5423 5423 5422 5423 5423